Location: Litvinovka
(48.6667°N, 34.3500°E)
Time: 06:26:45
(UTC+00:00)

CZ-4C R/B - Pass Details

Date: 18 September 2020
Orbit: 627 x 1375 km, 63.4° (Epoch: 21 October)

Event Time Altitude Azimuth Distance (km) Brightness Sun altitude
Exits shadow 23:01:58 25° 333° (NNW) 1,756 4.0 -36.6°
Maximum altitude 23:02:41 26° 344° (NNW) 1,759 4.1 -36.6°
Drops below altitude 10° 23:08:06 10° 38° (NE) 2,864 5.7 -36.1°
Sets 23:11:32 0° 51° (NE) 3,961 6.5 -35.9°
